Time,TemperatureF,DewpointF,PressureIn,WindDirection,WindDirectionDegrees,WindSpeedMPH,WindSpeedGustMPH,Humidity,HourlyPrecipIn,Conditions,Clouds,dailyrainin,SoftwareType,DateUTC
2013-04-26 00:03:00,51.0,46.0,-100.00,NW,309,2.0,3.0,84,0.00,,,0.00,,2013-04-26 04:03:00,
2013-04-26 00:12:00,50.0,45.0,-100.00,WNW,298,2.0,2.0,86,0.00,,,0.00,,2013-04-26 04:12:00,
2013-04-26 00:23:00,50.0,45.0,-100.00,WNW,298,2.0,2.0,86,0.00,,,0.00,,2013-04-26 04:23:00,
2013-04-26 00:32:00,50.0,46.0,-100.00,NNW,328,3.0,3.0,87,0.00,,,0.00,,2013-04-26 04:32:00,
2013-04-26 00:43:00,50.0,46.0,-100.00,NNW,328,3.0,3.0,87,0.00,,,0.00,,2013-04-26 04:43:00,
2013-04-26 00:53:00,49.0,46.0,-100.00,NW,316,2.0,3.0,88,0.00,,,0.00,,2013-04-26 04:53:00,
2013-04-26 01:02:00,49.0,46.0,-100.00,NW,316,2.0,2.0,89,0.00,,,0.00,,2013-04-26 05:02:00,
2013-04-26 01:13:00,49.0,46.0,-100.00,NW,316,2.0,2.0,89,0.00,,,0.00,,2013-04-26 05:13:00,
2013-04-26 01:22:00,49.0,46.0,-100.00,NW,316,2.0,2.0,89,0.00,,,0.00,,2013-04-26 05:22:00,
2013-04-26 01:32:00,48.0,45.0,-100.00,North,357,3.0,3.0,90,0.00,,,0.00,,2013-04-26 05:32:00,
2013-04-26 01:42:00,48.0,45.0,-100.00,North,357,1.0,2.0,90,0.00,,,0.00,,2013-04-26 05:42:00,
2013-04-26 01:52:00,48.0,45.0,-100.00,North,357,1.0,2.0,90,0.00,,,0.00,,2013-04-26 05:52:00,
2013-04-26 02:02:00,48.0,45.0,-100.00,North,357,1.0,2.0,90,0.00,,,0.00,,2013-04-26 06:02:00,
2013-04-26 02:12:00,49.0,47.0,-100.00,NNW,329,2.0,5.0,92,0.00,,,0.00,,2013-04-26 06:12:00,
2013-04-26 02:21:00,49.0,47.0,-100.00,NNW,329,2.0,5.0,92,0.00,,,0.00,,2013-04-26 06:21:00,
2013-04-26 02:32:00,51.0,49.0,-100.00,NNW,332,1.0,2.0,91,0.00,,,0.00,,2013-04-26 06:32:00,
2013-04-26 02:42:00,50.0,47.0,-100.00,SSW,212,1.0,1.0,90,0.00,,,0.00,,2013-04-26 06:42:00,
2013-04-26 02:52:00,50.0,47.0,-100.00,SSW,212,1.0,1.0,90,0.00,,,0.00,,2013-04-26 06:52:00,
2013-04-26 03:01:00,50.0,47.0,-100.00,SSW,212,1.0,1.0,90,0.00,,,0.00,,2013-04-26 07:01:00,
2013-04-26 03:11:00,51.0,48.0,-100.00,SSW,206,1.0,2.0,92,0.00,,,0.00,,2013-04-26 07:11:00,
2013-04-26 03:22:00,51.0,48.0,-100.00,SSW,206,1.0,2.0,92,0.00,,,0.00,,2013-04-26 07:22:00,
2013-04-26 03:32:00,51.0,49.0,-100.00,NNW,330,0.0,2.0,91,0.00,,,0.00,,2013-04-26 07:32:00,
2013-04-26 03:42:00,51.0,49.0,-100.00,NNW,330,0.0,2.0,91,0.00,,,0.00,,2013-04-26 07:42:00,
2013-04-26 03:52:00,49.0,47.0,-100.00,SW,234,1.0,2.0,92,0.00,,,0.00,,2013-04-26 07:52:00,
2013-04-26 04:03:00,49.0,47.0,-100.00,SW,234,1.0,2.0,92,0.00,,,0.00,,2013-04-26 08:03:00,
2013-04-26 04:11:00,49.0,47.0,-100.00,West,267,1.0,2.0,94,0.00,,,0.00,,2013-04-26 08:11:00,
2013-04-26 04:22:00,49.0,47.0,-100.00,West,267,1.0,2.0,94,0.00,,,0.00,,2013-04-26 08:22:00,
2013-04-26 04:32:00,48.0,46.0,-100.00,West,264,2.0,3.0,94,0.00,,,0.00,,2013-04-26 08:32:00,
2013-04-26 04:42:00,48.0,46.0,-100.00,West,264,2.0,3.0,94,0.00,,,0.00,,2013-04-26 08:42:00,
2013-04-26 04:52:00,47.0,45.0,-100.00,WSW,257,2.0,3.0,94,0.00,,,0.00,,2013-04-26 08:52:00,
2013-04-26 05:02:00,47.0,45.0,-100.00,WSW,257,2.0,3.0,94,0.00,,,0.00,,2013-04-26 09:02:00,
2013-04-26 05:12:00,46.0,44.0,-100.00,WSW,251,2.0,3.0,94,0.00,,,0.00,,2013-04-26 09:12:00,
2013-04-26 05:22:00,46.0,44.0,-100.00,WSW,251,2.0,3.0,94,0.00,,,0.00,,2013-04-26 09:22:00,
2013-04-26 05:33:00,45.0,44.0,-100.00,WSW,254,2.0,3.0,94,0.00,,,0.00,,2013-04-26 09:33:00,
2013-04-26 05:43:00,45.0,43.0,-100.00,WSW,251,3.0,4.0,94,0.00,,,0.00,,2013-04-26 09:43:00,
2013-04-26 05:53:00,45.0,43.0,-100.00,WSW,251,3.0,4.0,94,0.00,,,0.00,,2013-04-26 09:53:00,
2013-04-26 06:03:00,44.0,43.0,-100.00,West,261,2.0,2.0,95,0.00,,,0.00,,2013-04-26 10:03:00,
2013-04-26 06:12:00,44.0,43.0,-100.00,West,261,2.0,2.0,95,0.00,,,0.00,,2013-04-26 10:12:00,
2013-04-26 06:23:00,44.0,43.0,-100.00,West,261,2.0,2.0,95,0.00,,,0.00,,2013-04-26 10:23:00,
2013-04-26 06:33:00,44.0,43.0,-100.00,WSW,254,2.0,3.0,95,0.00,,,0.00,,2013-04-26 10:33:00,
2013-04-26 06:42:00,44.0,43.0,-100.00,WSW,254,2.0,3.0,95,0.00,,,0.00,,2013-04-26 10:42:00,
2013-04-26 06:52:00,44.0,42.0,-100.00,WSW,258,3.0,4.0,95,0.00,,,0.00,,2013-04-26 10:52:00,
2013-04-26 07:02:00,44.0,42.0,-100.00,West,278,2.0,3.0,95,0.00,,,0.00,,2013-04-26 11:02:00,
2013-04-26 07:11:00,44.0,42.0,-100.00,West,278,2.0,3.0,95,0.00,,,0.00,,2013-04-26 11:11:00,
2013-04-26 07:22:00,44.0,42.0,-100.00,West,261,2.0,3.0,94,0.00,,,0.00,,2013-04-26 11:22:00,
2013-04-26 07:32:00,44.0,42.0,-100.00,West,261,2.0,3.0,94,0.00,,,0.00,,2013-04-26 11:32:00,
2013-04-26 07:40:00,47.0,42.0,-100.00,NNE,23,1.0,4.0,83,0.00,,,0.00,,2013-04-26 11:40:00,
2013-04-26 07:42:00,44.0,42.0,-100.00,West,261,2.0,3.0,94,0.00,,,0.00,,2013-04-26 11:42:00,
2013-04-26 07:52:00,44.0,43.0,-100.00,West,265,2.0,3.0,94,0.00,,,0.00,,2013-04-26 11:52:00,
2013-04-26 08:02:00,47.0,42.0,-100.00,NNE,23,1.0,4.0,83,0.00,,,0.00,,2013-04-26 12:02:00,
2013-04-26 08:12:00,47.0,42.0,-100.00,NNE,23,1.0,4.0,83,0.00,,,0.00,,2013-04-26 12:12:00,
2013-04-26 08:22:00,47.0,42.0,-100.00,NNE,23,1.0,4.0,83,0.00,,,0.00,,2013-04-26 12:22:00,
2013-04-26 08:32:00,47.0,42.0,-100.00,NNE,23,1.0,4.0,83,0.00,,,0.00,,2013-04-26 12:32:00,
2013-04-26 08:52:00,50.0,41.0,-100.00,NE,47,2.0,5.0,70,0.00,,,0.00,,2013-04-26 12:52:00,
2013-04-26 09:01:00,50.0,41.0,-100.00,NE,47,2.0,5.0,70,0.00,,,0.00,,2013-04-26 13:01:00,
2013-04-26 09:11:00,53.0,41.0,-100.00,NE,56,4.0,5.0,66,0.00,,,0.00,,2013-04-26 13:11:00,
2013-04-26 09:22:00,53.0,41.0,-100.00,NE,56,4.0,5.0,66,0.00,,,0.00,,2013-04-26 13:22:00,
2013-04-26 09:32:00,54.0,41.0,-100.00,ENE,58,2.0,5.0,61,0.00,,,0.00,,2013-04-26 13:32:00,
2013-04-26 09:42:00,56.0,41.0,-100.00,NE,49,3.0,5.0,57,0.00,,,0.00,,2013-04-26 13:42:00,
2013-04-26 09:52:00,56.0,41.0,-100.00,NE,49,3.0,5.0,57,0.00,,,0.00,,2013-04-26 13:52:00,
2013-04-26 10:01:00,56.0,41.0,-100.00,NE,49,3.0,5.0,57,0.00,,,0.00,,2013-04-26 14:01:00,
2013-04-26 10:11:00,59.0,42.0,-100.00,NE,41,4.0,6.0,55,0.00,,,0.00,,2013-04-26 14:11:00,
2013-04-26 10:21:00,60.0,42.0,-100.00,NNE,32,3.0,6.0,50,0.00,,,-99.99,,2013-04-26 14:21:00,
2013-04-26 10:32:00,60.0,42.0,-100.00,NNE,32,3.0,6.0,50,0.00,,,-99.99,,2013-04-26 14:32:00,
2013-04-26 10:42:00,62.0,36.0,-100.00,SE,133,6.0,11.0,38,0.00,,,-99.99,,2013-04-26 14:42:00,
2013-04-26 10:52:00,62.0,36.0,-100.00,SE,133,6.0,11.0,38,0.00,,,-99.99,,2013-04-26 14:52:00,
2013-04-26 11:01:00,62.0,36.0,-100.00,SE,133,6.0,11.0,38,0.00,,,-99.99,,2013-04-26 15:01:00,
2013-04-26 11:12:00,69.0,37.0,-100.00,SSE,148,4.0,9.0,31,0.00,,,-99.99,,2013-04-26 15:12:00,
2013-04-26 11:21:00,69.0,37.0,-100.00,SSE,148,4.0,9.0,31,0.00,,,-99.99,,2013-04-26 15:21:00,
2013-04-26 11:33:00,67.0,36.0,-100.00,SE,144,5.0,10.0,32,0.00,,,-99.99,,2013-04-26 15:33:00,
2013-04-26 11:43:00,67.0,36.0,-100.00,SE,144,5.0,10.0,32,0.00,,,-99.99,,2013-04-26 15:43:00,
2013-04-26 11:53:00,66.0,34.0,-100.00,East,99,4.0,7.0,30,0.00,,,-99.99,,2013-04-26 15:53:00,
2013-04-26 12:03:00,66.0,34.0,-100.00,East,99,4.0,7.0,30,0.00,,,-99.99,,2013-04-26 16:03:00,
2013-04-26 12:13:00,67.0,36.0,-100.00,East,85,3.0,6.0,32,0.00,,,-99.99,,2013-04-26 16:13:00,
2013-04-26 12:23:00,67.0,36.0,-100.00,East,85,3.0,6.0,32,0.00,,,-99.99,,2013-04-26 16:23:00,
2013-04-26 12:33:00,67.0,33.0,-100.00,ENE,61,2.0,3.0,29,0.00,,,-99.99,,2013-04-26 16:33:00,
2013-04-26 12:42:00,67.0,33.0,-100.00,ENE,61,2.0,3.0,29,0.00,,,-99.99,,2013-04-26 16:42:00,
2013-04-26 12:53:00,68.0,38.0,-100.00,East,96,4.0,7.0,33,0.00,,,-99.99,,2013-04-26 16:53:00,
2013-04-26 13:02:00,68.0,35.0,-100.00,ESE,109,2.0,6.0,30,0.00,,,-99.99,,2013-04-26 17:02:00,
2013-04-26 13:12:00,68.0,35.0,-100.00,ESE,109,2.0,6.0,30,0.00,,,-99.99,,2013-04-26 17:12:00,
2013-04-26 13:22:00,68.0,33.0,-100.00,East,100,3.0,4.0,27,0.00,,,-99.99,,2013-04-26 17:22:00,
2013-04-26 13:32:00,68.0,33.0,-100.00,East,100,3.0,4.0,27,0.00,,,-99.99,,2013-04-26 17:32:00,
2013-04-26 13:42:00,68.0,33.0,-100.00,East,100,3.0,4.0,27,0.00,,,-99.99,,2013-04-26 17:42:00,
2013-04-26 13:52:00,69.0,33.0,-100.00,East,92,2.0,4.0,26,0.00,,,-99.99,,2013-04-26 17:52:00,
2013-04-26 14:02:00,69.0,33.0,-100.00,East,92,2.0,4.0,26,0.00,,,-99.99,,2013-04-26 18:02:00,
2013-04-26 14:12:00,69.0,35.0,-100.00,East,100,3.0,4.0,29,0.00,,,-99.99,,2013-04-26 18:12:00,
2013-04-26 14:22:00,69.0,35.0,-100.00,East,100,3.0,4.0,29,0.00,,,-99.99,,2013-04-26 18:22:00,
2013-04-26 14:33:00,69.0,35.0,-100.00,ENE,75,2.0,3.0,28,0.00,,,-99.99,,2013-04-26 18:33:00,
2013-04-26 14:42:00,69.0,35.0,-100.00,ENE,75,2.0,3.0,28,0.00,,,-99.99,,2013-04-26 18:42:00,
2013-04-26 14:52:00,68.0,31.0,-100.00,NE,42,1.0,3.0,25,0.00,,,-99.99,,2013-04-26 18:52:00,
2013-04-26 15:01:00,68.0,31.0,-100.00,NE,42,1.0,3.0,25,0.00,,,-99.99,,2013-04-26 19:01:00,
2013-04-26 15:12:00,70.0,37.0,-100.00,East,99,2.0,4.0,30,0.00,,,-99.99,,2013-04-26 19:12:00,
2013-04-26 15:22:00,70.0,37.0,-100.00,East,99,2.0,4.0,30,0.00,,,-99.99,,2013-04-26 19:22:00,
2013-04-26 15:32:00,70.0,33.0,-100.00,NE,49,4.0,5.0,26,0.00,,,-99.99,,2013-04-26 19:32:00,
2013-04-26 15:42:00,70.0,33.0,-100.00,NE,49,4.0,5.0,26,0.00,,,-99.99,,2013-04-26 19:42:00,
2013-04-26 15:52:00,70.0,35.0,-100.00,East,100,2.0,4.0,27,0.00,,,-99.99,,2013-04-26 19:52:00,
2013-04-26 16:02:00,70.0,35.0,-100.00,East,100,2.0,4.0,27,0.00,,,-99.99,,2013-04-26 20:02:00,
2013-04-26 16:11:00,70.0,30.0,-100.00,NE,55,3.0,5.0,23,0.00,,,-99.99,,2013-04-26 20:11:00,
2013-04-26 16:22:00,70.0,30.0,-100.00,NE,55,3.0,5.0,23,0.00,,,-99.99,,2013-04-26 20:22:00,
2013-04-26 16:32:00,70.0,30.0,-100.00,NE,47,2.0,4.0,23,0.00,,,-99.99,,2013-04-26 20:32:00,
2013-04-26 16:40:00,70.0,30.0,-100.00,NE,49,1.0,2.0,22,0.00,,,-99.99,,2013-04-26 20:40:00,
2013-04-26 16:42:00,70.0,30.0,-100.00,NE,47,2.0,4.0,23,0.00,,,-99.99,,2013-04-26 20:42:00,
2013-04-26 16:52:00,70.0,27.0,-100.00,NE,41,3.0,5.0,20,0.00,,,-99.99,,2013-04-26 20:52:00,
2013-04-26 17:02:00,70.0,27.0,-100.00,NE,41,3.0,5.0,20,0.00,,,-99.99,,2013-04-26 21:02:00,
2013-04-26 17:11:00,70.0,30.0,-100.00,NE,49,1.0,2.0,22,0.00,,,-99.99,,2013-04-26 21:11:00,
2013-04-26 17:33:00,70.0,30.0,-100.00,NE,49,1.0,2.0,22,0.00,,,-99.99,,2013-04-26 21:33:00,
2013-04-26 17:53:00,70.0,31.0,-100.00,NNE,27,2.0,3.0,24,0.00,,,-99.99,,2013-04-26 21:53:00,
2013-04-26 18:03:00,70.0,32.0,-100.00,ESE,106,1.0,2.0,24,0.00,,,-99.99,,2013-04-26 22:03:00,
2013-04-26 18:13:00,70.0,32.0,-100.00,ESE,106,1.0,2.0,24,0.00,,,-99.99,,2013-04-26 22:13:00,
2013-04-26 18:23:00,70.0,32.0,-100.00,ESE,106,1.0,2.0,24,0.00,,,-99.99,,2013-04-26 22:23:00,
2013-04-26 18:33:00,69.0,37.0,-100.00,ENE,78,1.0,1.0,30,0.00,,,-99.99,,2013-04-26 22:33:00,
2013-04-26 18:42:00,69.0,37.0,-100.00,ENE,78,1.0,1.0,30,0.00,,,-99.99,,2013-04-26 22:42:00,
2013-04-26 18:52:00,68.0,38.0,-100.00,SE,133,0.0,1.0,33,0.00,,,-99.99,,2013-04-26 22:52:00,
2013-04-26 19:02:00,68.0,38.0,-100.00,SE,133,0.0,1.0,33,0.00,,,-99.99,,2013-04-26 23:02:00,
2013-04-26 19:12:00,67.0,35.0,-100.00,SSE,150,0.0,1.0,30,0.00,,,-99.99,,2013-04-26 23:12:00,
2013-04-26 19:21:00,67.0,35.0,-100.00,SSE,150,0.0,1.0,30,0.00,,,-99.99,,2013-04-26 23:21:00,
2013-04-26 19:32:00,66.0,34.0,-100.00,SSE,151,0.0,1.0,31,0.00,,,-99.99,,2013-04-26 23:32:00,
2013-04-26 19:42:00,66.0,34.0,-100.00,SSE,151,0.0,1.0,31,0.00,,,-99.99,,2013-04-26 23:42:00,
2013-04-26 19:52:00,64.0,42.0,-100.00,SSE,150,0.0,1.0,44,0.00,,,-99.99,,2013-04-26 23:52:00,
2013-04-26 20:01:00,61.0,42.0,-100.00,SW,229,0.0,1.0,49,0.00,,,-99.99,,2013-04-27 00:01:00,
2013-04-26 20:12:00,61.0,42.0,-100.00,SW,229,0.0,1.0,49,0.00,,,-99.99,,2013-04-27 00:12:00,
2013-04-26 20:21:00,60.0,47.0,-100.00,WSW,239,1.0,1.0,62,0.00,,,-99.99,,2013-04-27 00:21:00,
2013-04-26 20:32:00,60.0,47.0,-100.00,WSW,239,1.0,1.0,62,0.00,,,-99.99,,2013-04-27 00:32:00,
2013-04-26 20:42:00,60.0,47.0,-100.00,WSW,239,1.0,1.0,62,0.00,,,-99.99,,2013-04-27 00:42:00,
2013-04-26 20:52:00,59.0,47.0,-100.00,WSW,243,1.0,2.0,64,0.00,,,-99.99,,2013-04-27 00:52:00,
2013-04-26 21:01:00,58.0,46.0,-100.00,WNW,301,2.0,2.0,66,0.00,,,-99.99,,2013-04-27 01:01:00,
2013-04-26 21:12:00,58.0,46.0,-100.00,WNW,301,2.0,2.0,66,0.00,,,-99.99,,2013-04-27 01:12:00,
2013-04-26 21:21:00,58.0,46.0,-100.00,WNW,301,2.0,2.0,66,0.00,,,-99.99,,2013-04-27 01:21:00,
2013-04-26 21:32:00,57.0,46.0,-100.00,WSW,256,1.0,2.0,67,0.00,,,-99.99,,2013-04-27 01:32:00,
2013-04-26 21:42:00,57.0,46.0,-100.00,WSW,256,1.0,2.0,67,0.00,,,-99.99,,2013-04-27 01:42:00,
2013-04-26 21:52:00,56.0,47.0,-100.00,WSW,248,1.0,1.0,70,0.00,,,-99.99,,2013-04-27 01:52:00,
2013-04-26 22:02:00,56.0,46.0,-100.00,WSW,247,2.0,2.0,69,0.00,,,-99.99,,2013-04-27 02:02:00,
2013-04-26 22:11:00,56.0,46.0,-100.00,WSW,247,2.0,2.0,69,0.00,,,-99.99,,2013-04-27 02:11:00,
2013-04-26 22:22:00,54.0,46.0,-100.00,WSW,253,0.0,1.0,73,0.00,,,-99.99,,2013-04-27 02:22:00,
2013-04-26 22:32:00,54.0,46.0,-100.00,WSW,253,0.0,1.0,73,0.00,,,-99.99,,2013-04-27 02:32:00,
2013-04-26 22:42:00,54.0,46.0,-100.00,WSW,253,0.0,1.0,73,0.00,,,-99.99,,2013-04-27 02:42:00,
2013-04-26 22:52:00,54.0,46.0,-100.00,West,278,2.0,3.0,73,0.00,,,-99.99,,2013-04-27 02:52:00,
2013-04-26 23:02:00,54.0,46.0,-100.00,West,278,2.0,3.0,73,0.00,,,-99.99,,2013-04-27 03:02:00,
2013-04-26 23:11:00,54.0,46.0,-100.00,NW,315,2.0,3.0,76,0.00,,,-99.99,,2013-04-27 03:11:00,
2013-04-26 23:22:00,54.0,46.0,-100.00,NW,315,2.0,3.0,76,0.00,,,-99.99,,2013-04-27 03:22:00,
2013-04-26 23:33:00,53.0,47.0,-100.00,WSW,250,2.0,2.0,79,0.00,,,-99.99,,2013-04-27 03:33:00,
2013-04-26 23:43:00,53.0,47.0,-100.00,WSW,250,2.0,2.0,79,0.00,,,-99.99,,2013-04-27 03:43:00,
2013-04-26 23:53:00,53.0,47.0,-100.00,WSW,251,2.0,2.0,81,0.00,,,-99.99,,2013-04-27 03:53:00,